Total_Precipitation_Accumulation
0.02 0.00 0.00 0.00 0.00 0.00 0.00 0.00 0.00 0.00 0.00 0.00 0.00 0.00 0.00 0.00 0.00 0.00 0.00 0.00 0.00 0.00 0.01 0.02 0.02 0.02 0.02 0.01 0.01 0.01 0.01 0.01 0.02 0.05 0.10 0.17 0.20 0.23 0.31 0.40 0.48 0.52 0.54 0.55
0.03 0.01 0.01 0.01 0.00 0.00 0.00 0.00 0.00 0.00 0.00 0.00 0.00 0.00 0.00 0.00 0.00 0.01 0.01 0.00 0.01 0.01 0.02 0.03 0.03 0.03 0.02 0.02 0.03 0.02 0.02 0.03 0.06 0.11 0.18 0.25 0.29 0.32 0.39 0.45 0.48 0.47 0.48 0.48
0.05 0.02 0.04 0.04 0.01 0.00 0.00 0.00 0.00 0.00 0.00 0.00 0.00 0.00 0.00 0.01 0.03 0.02 0.01 0.01 0.01 0.03 0.03 0.04 0.04 0.04 0.04 0.03 0.03 0.02 0.04 0.06 0.10 0.13 0.17 0.20 0.23 0.28 0.33 0.31 0.27 0.30 0.35 0.35
0.07 0.07 0.15 0.06 0.00 0.00 0.00 0.00 0.00 0.00 0.00 0.00 0.00 0.00 0.00 0.01 0.02 0.02 0.03 0.04 0.04 0.04 0.04 0.03 0.03 0.03 0.03 0.02 0.01 0.02 0.04 0.07 0.10 0.12 0.16 0.14 0.13 0.17 0.20 0.17 0.17 0.20 0.21 0.18
0.13 0.10 0.08 0.02 0.00 0.00 0.00 0.00 0.00 0.00 0.00 0.00 0.00 0.00 0.01 0.03 0.02 0.03 0.04 0.04 0.04 0.04 0.03 0.02 0.02 0.02 0.02 0.01 0.01 0.02 0.04 0.05 0.07 0.10 0.14 0.12 0.10 0.11 0.14 0.14 0.13 0.12 0.11 0.08
0.17 0.12 0.05 0.01 0.00 0.00 0.00 0.00 0.00 0.00 0.00 0.00 0.02 0.08 0.05 0.06 0.04 0.03 0.02 0.02 0.03 0.02 0.01 0.01 0.01 0.01 0.01 0.00 0.00 0.01 0.02 0.03 0.03 0.04 0.06 0.05 0.04 0.03 0.04 0.06 0.06 0.06 0.04 0.04
0.16 0.09 0.03 0.01 0.00 0.00 0.01 0.01 0.00 0.00 0.01 0.01 0.05 0.13 0.11 0.07 0.04 0.03 0.02 0.01 0.01 0.01 0.01 0.00 0.00 0.00 0.00 0.00 0.00 0.00 0.00 0.00 0.00 0.00 0.01 0.01 0.02 0.02 0.02 0.03 0.03 0.03 0.03 0.03
0.12 0.08 0.03 0.01 0.01 0.02 0.02 0.01 0.00 0.00 0.00 0.02 0.02 0.02 0.01 0.02 0.02 0.01 0.00 0.00 0.00 0.00 0.00 0.00 0.00 0.00 0.00 0.00 0.00 0.00 0.00 0.00 0.00 0.00 0.01 0.01 0.02 0.02 0.02 0.03 0.04 0.04 0.04 0.03
0.08 0.05 0.02 0.01 0.01 0.01 0.00 0.00 0.00 0.01 0.02 0.03 0.03 0.01 0.01 0.01 0.00 0.00 0.00 0.00 0.00 0.00 0.00 0.00 0.00 0.00 0.00 0.00 0.00 0.00 0.00 0.00 0.00 0.01 0.01 0.02 0.02 0.03 0.03 0.04 0.06 0.08 0.07 0.06
0.03 0.03 0.01 0.01 0.01 0.01 0.01 0.00 0.00 0.01 0.03 0.03 0.02 0.01 0.00 0.00 0.00 0.00 0.00 0.00 0.00 0.00 0.00 0.00 0.00 0.00 0.00 0.00 0.00 0.00 0.00 0.01 0.01 0.01 0.02 0.02 0.03 0.04 0.05 0.08 0.19 0.23 0.18 0.15
0.02 0.01 0.01 0.00 0.00 0.00 0.01 0.01 0.01 0.01 0.02 0.02 0.01 0.00 0.00 0.00 0.00 0.00 0.00 0.00 0.00 0.00 0.00 0.00 0.00 0.00 0.00 0.00 0.00 0.00 0.01 0.01 0.01 0.02 0.03 0.03 0.04 0.04 0.06 0.09 0.27 0.40 0.32 0.31
0.02 0.01 0.01 0.00 0.00 0.00 0.00 0.00 0.01 0.01 0.01 0.00 0.00 0.00 0.00 0.00 0.00 0.00 0.00 0.00 0.00 0.00 0.00 0.00 0.00 0.00 0.00 0.00 0.00 0.01 0.01 0.02 0.02 0.04 0.04 0.04 0.05 0.05 0.05 0.08 0.14 0.17 0.20 0.28
0.01 0.00 0.00 0.00 0.00 0.00 0.00 0.00 0.01 0.01 0.01 0.00 0.00 0.00 0.00 0.00 0.00 0.00 0.00 0.00 0.00 0.00 0.00 0.00 0.00 0.00 0.00 0.00 0.00 0.01 0.02 0.03 0.05 0.05 0.05 0.06 0.07 0.09 0.10 0.07 0.06 0.07 0.09 0.15
0.01 0.00 0.00 0.00 0.00 0.00 0.00 0.00 0.01 0.01 0.00 0.00 0.00 0.00 0.00 0.00 0.00 0.00 0.00 0.00 0.00 0.00 0.00 0.00 0.00 0.00 0.00 0.00 0.01 0.01 0.02 0.03 0.06 0.06 0.07 0.09 0.11 0.13 0.15 0.15 0.11 0.06 0.05 0.07
0.00 0.00 0.00 0.00 0.00 0.00 0.00 0.00 0.01 0.01 0.00 0.00 0.00 0.00 0.00 0.00 0.00 0.00 0.00 0.00 0.00 0.00 0.00 0.00 0.00 0.00 0.00 0.01 0.01 0.01 0.02 0.04 0.07 0.08 0.09 0.10 0.12 0.14 0.14 0.14 0.13 0.10 0.07 0.07
0.00 0.00 0.00 0.00 0.00 0.00 0.00 0.00 0.01 0.00 0.00 0.00 0.00 0.00 0.00 0.00 0.00 0.00 0.00 0.00 0.00 0.00 0.00 0.00 0.00 0.01 0.01 0.01 0.02 0.02 0.03 0.05 0.08 0.09 0.10 0.12 0.14 0.16 0.17 0.17 0.17 0.14 0.12 0.11
0.01 0.01 0.00 0.00 0.00 0.00 0.01 0.01 0.01 0.00 0.00 0.00 0.00 0.00 0.00 0.00 0.00 0.00 0.00 0.00 0.00 0.00 0.00 0.00 0.01 0.01 0.01 0.01 0.03 0.04 0.04 0.05 0.09 0.10 0.12 0.14 0.18 0.20 0.22 0.23 0.23 0.19 0.13 0.12
0.01 0.01 0.01 0.01 0.01 0.01 0.01 0.01 0.00 0.00 0.00 0.00 0.00 0.00 0.00 0.00 0.00 0.00 0.00 0.00 0.00 0.00 0.00 0.00 0.02 0.02 0.01 0.01 0.04 0.05 0.07 0.09 0.11 0.14 0.16 0.19 0.22 0.24 0.25 0.26 0.23 0.21 0.15 0.12
0.01 0.01 0.01 0.01 0.01 0.01 0.01 0.00 0.00 0.00 0.00 0.00 0.00 0.00 0.01 0.01 0.01 0.01 0.01 0.01 0.01 0.01 0.01 0.01 0.03 0.02 0.01 0.03 0.07 0.09 0.12 0.14 0.15 0.15 0.17 0.20 0.21 0.19 0.20 0.23 0.22 0.20 0.18 0.17
0.01 0.01 0.01 0.01 0.01 0.01 0.01 0.01 0.01 0.01 0.00 0.00 0.00 0.00 0.00 0.00 0.00 0.00 0.00 0.00 0.01 0.01 0.01 0.02 0.02 0.02 0.04 0.07 0.13 0.15 0.15 0.16 0.17 0.18 0.20 0.21 0.22 0.21 0.21 0.23 0.23 0.22 0.21 0.19
0.01 0.01 0.02 0.02 0.01 0.01 0.01 0.01 0.01 0.01 0.01 0.00 0.00 0.00 0.00 0.01 0.01 0.01 0.01 0.01 0.01 0.01 0.02 0.02 0.03 0.07 0.11 0.15 0.15 0.13 0.13 0.15 0.18 0.22 0.24 0.26 0.26 0.25 0.24 0.24 0.25 0.24 0.23 0.20
0.01 0.02 0.02 0.02 0.01 0.01 0.01 0.01 0.01 0.01 0.01 0.01 0.01 0.01 0.01 0.01 0.01 0.01 0.01 0.01 0.01 0.03 0.03 0.02 0.04 0.09 0.14 0.15 0.12 0.11 0.12 0.16 0.20 0.25 0.28 0.30 0.32 0.33 0.30 0.28 0.29 0.26 0.22 0.20
0.02 0.02 0.02 0.02 0.02 0.02 0.02 0.02 0.02 0.02 0.02 0.02 0.02 0.02 0.02 0.02 0.01 0.02 0.02 0.02 0.02 0.04 0.04 0.04 0.05 0.10 0.12 0.11 0.09 0.11 0.14 0.19 0.24 0.28 0.30 0.32 0.35 0.38 0.37 0.33 0.30 0.28 0.26 0.23
0.03 0.04 0.04 0.04 0.04 0.04 0.04 0.04 0.03 0.03 0.03 0.03 0.03 0.03 0.03 0.03 0.03 0.03 0.03 0.04 0.04 0.05 0.04 0.04 0.06 0.08 0.11 0.10 0.11 0.15 0.20 0.25 0.32 0.36 0.36 0.36 0.36 0.37 0.38 0.37 0.34 0.29 0.25 0.23
0.05 0.06 0.06 0.05 0.05 0.05 0.05 0.04 0.04 0.03 0.03 0.03 0.03 0.03 0.03 0.04 0.04 0.04 0.04 0.04 0.04 0.05 0.05 0.05 0.07 0.10 0.11 0.13 0.16 0.21 0.25 0.31 0.42 0.50 0.49 0.43 0.37 0.36 0.35 0.34 0.34 0.31 0.27 0.25
0.09 0.09 0.08 0.08 0.07 0.07 0.07 0.06 0.06 0.06 0.05 0.05 0.05 0.05 0.05 0.05 0.05 0.05 0.05 0.04 0.05 0.06 0.07 0.08 0.09 0.12 0.14 0.17 0.20 0.25 0.30 0.35 0.43 0.48 0.44 0.38 0.35 0.35 0.35 0.34 0.33 0.32 0.30 0.28
0.10 0.10 0.09 0.09 0.09 0.09 0.09 0.09 0.09 0.09 0.09 0.08 0.08 0.07 0.06 0.06 0.06 0.06 0.06 0.05 0.06 0.07 0.08 0.10 0.12 0.14 0.16 0.19 0.25 0.29 0.32 0.36 0.46 0.53 0.48 0.40 0.37 0.36 0.34 0.34 0.33 0.32 0.30 0.28